Theta_e
309 309 312 311 309 297 305 311 303 305 311 308 302 305 308 304 299 296 307 305 309 313 318 320 321 325 326 329 331 333 333 334 335 335 337 338 339 339 340 342 341 340 341 342 341 341 341 341 341 335 334 335 335 336 336 335 340 346 346 347 350 353 353
309 311 313 311 311 309 306 301 306 311 315 309 302 295 296 295 293 296 305 302 302 306 301 316 318 322 323 327 329 332 332 333 334 335 336 337 338 339 341 343 343 341 342 343 343 343 342 342 342 336 333 336 336 338 338 337 342 347 347 348 349 352 353
309 313 310 308 310 314 307 306 314 306 300 299 301 299 292 293 294 295 298 304 304 304 304 312 314 317 321 325 329 330 331 332 333 334 336 337 339 340 341 342 343 342 342 342 342 342 343 342 343 339 335 336 336 339 340 339 342 349 349 350 350 352 353
308 307 305 298 302 308 312 313 310 315 305 301 300 300 299 296 294 296 294 301 297 309 307 313 315 316 320 325 328 329 331 332 334 335 336 337 339 340 341 342 342 343 343 343 343 342 342 342 341 339 335 336 336 339 342 341 344 350 351 352 352 351 352
305 298 302 300 301 300 303 305 302 305 306 307 305 305 301 297 293 292 293 294 299 304 312 315 316 316 320 327 328 329 332 333 335 336 336 337 337 337 341 343 342 343 343 343 343 343 343 342 342 339 336 336 337 340 343 343 342 349 351 352 353 352 352
297 301 306 307 306 305 302 303 302 303 302 301 298 295 302 301 296 296 292 291 300 310 319 318 317 318 323 327 330 330 332 333 334 336 337 338 336 335 339 344 343 343 343 343 343 343 344 341 341 338 337 337 337 341 344 343 341 347 351 351 352 352 352
301 305 310 311 311 308 306 307 305 305 301 299 294 290 294 299 301 306 300 297 302 313 317 319 317 319 325 328 331 330 332 333 334 336 337 339 339 336 338 340 343 344 344 342 342 341 342 341 340 337 338 337 338 342 344 344 341 344 350 351 351 351 350
304 307 308 309 310 310 304 305 306 305 302 302 299 297 300 299 299 297 297 295 299 311 316 318 318 323 328 331 332 331 332 333 334 335 336 338 338 339 341 341 344 345 346 343 340 340 340 340 339 337 338 339 340 344 345 345 343 344 347 349 350 350 349
297 300 303 303 307 305 302 301 301 305 306 306 304 302 300 297 301 300 295 292 297 311 320 320 325 328 328 330 331 333 332 333 334 335 336 338 338 338 338 340 342 344 345 341 340 341 340 339 339 338 337 340 341 344 345 345 345 346 347 349 349 349 349
290 290 290 293 295 300 302 304 304 305 305 304 303 300 301 291 302 303 296 296 302 310 318 319 324 326 326 329 331 333 334 333 333 335 336 337 337 338 338 339 340 341 341 342 341 341 341 341 340 339 337 341 342 345 346 346 345 347 348 348 348 348 349
295 296 298 303 308 302 299 302 302 303 305 305 303 298 295 295 298 301 301 304 306 311 315 317 321 324 325 326 329 330 331 332 333 335 336 337 337 337 338 339 340 341 340 341 341 342 343 344 343 340 337 339 343 344 346 346 346 348 348 348 348 347 347
302 302 303 305 307 302 302 301 302 304 303 305 303 299 298 304 301 297 306 308 308 309 313 316 318 321 323 325 326 328 329 331 333 335 336 340 336 337 337 338 340 340 340 340 340 342 341 343 347 343 342 339 343 344 345 346 346 348 349 347 347 346 346
302 302 303 304 304 303 302 302 302 302 304 304 303 302 303 304 297 296 306 310 308 309 314 318 321 323 325 327 329 330 331 332 333 334 335 335 335 336 336 338 340 340 341 341 341 343 343 345 345 345 343 340 343 345 346 347 347 348 349 347 346 345 345
302 303 303 305 303 303 303 303 303 303 304 303 304 304 306 308 307 308 307 307 309 311 313 319 322 327 328 331 333 332 331 332 333 333 334 334 335 335 335 336 337 338 340 340 341 343 342 342 343 345 342 342 343 344 345 347 346 349 349 347 346 345 345
299 303 306 304 304 301 300 302 303 304 304 303 304 307 311 312 308 310 310 309 310 314 316 320 326 330 333 333 332 331 331 333 333 332 332 333 333 334 335 336 336 338 339 340 340 339 341 341 341 344 343 346 345 344 346 346 346 349 349 347 346 345 345
296 301 303 303 304 303 300 300 302 304 303 301 306 308 311 308 306 309 310 308 310 314 320 325 328 329 330 329 330 331 331 333 333 331 331 332 332 333 334 336 337 337 338 339 339 338 339 343 344 343 343 348 348 344 347 347 347 351 349 348 346 346 347
295 301 303 303 301 298 297 300 303 306 305 307 312 314 315 313 313 310 307 307 312 317 322 322 325 328 328 328 329 330 331 332 332 332 332 333 334 334 334 335 337 338 338 338 338 339 340 341 346 346 343 348 349 346 348 349 350 352 350 349 348 348 352
296 301 302 301 295 291 294 305 308 310 311 312 311 311 313 314 313 309 311 313 316 316 317 318 319 323 326 328 330 333 333 332 332 332 334 334 335 335 336 337 338 339 340 341 341 341 341 341 344 349 347 348 351 348 351 351 351 352 351 351 351 351 355
295 299 299 296 291 294 304 309 313 314 314 314 312 312 314 315 317 318 317 317 318 319 319 320 322 322 323 329 330 331 333 334 333 332 333 334 335 335 336 336 337 339 341 341 342 342 341 341 342 347 349 350 353 349 352 353 353 354 353 353 354 354 356
298 295 294 290 290 303 310 313 315 319 312 312 314 311 312 313 317 319 317 319 321 322 324 325 324 324 325 326 328 327 330 334 333 332 332 334 335 335 337 337 338 338 339 339 340 340 342 342 343 350 349 352 353 350 353 355 355 355 355 355 355 356 357
296 296 295 295 303 303 306 309 312 313 308 307 310 305 308 313 317 319 318 319 321 324 325 327 329 326 327 325 328 337 337 330 330 333 333 335 335 337 337 338 339 340 340 339 339 341 341 342 347 351 351 353 354 352 353 355 356 356 356 356 356 357 358
299 297 292 293 293 293 299 310 315 319 319 313 316 314 307 315 316 323 321 320 322 324 326 328 329 324 322 319 323 334 341 340 326 328 329 333 335 337 338 338 338 338 339 339 340 341 341 341 347 353 353 354 354 353 353 354 355 356 356 357 358 358 358
299 297 294 292 293 296 307 312 315 318 320 315 317 311 304 313 316 322 324 325 327 328 328 328 327 320 315 317 323 333 339 343 346 346 349 347 336 335 336 337 337 338 339 339 340 340 339 339 344 353 353 354 354 354 354 354 355 355 356 357 358 357 358
299 296 295 292 299 302 310 314 316 318 320 317 309 297 298 312 318 322 327 326 327 328 329 328 327 323 318 321 326 336 339 342 344 345 347 350 354 345 333 334 336 338 340 340 339 337 338 339 344 353 354 354 355 355 356 356 355 354 356 357 360 359 360
302 302 295 297 304 312 315 315 318 319 319 312 300 295 304 315 319 324 329 329 329 327 326 325 321 326 327 329 333 337 338 341 341 344 347 348 353 356 359 357 347 337 337 337 337 338 338 340 343 350 355 353 354 356 357 356 355 356 358 360 360 360 360
298 299 295 296 302 309 314 318 319 319 313 301 302 310 315 319 321 325 329 330 330 329 328 327 326 330 336 338 337 336 337 338 338 342 345 348 351 356 363 366 362 346 340 338 339 339 341 342 345 349 353 353 353 355 357 357 357 359 359 360 360 359 360
303 301 298 295 291 307 317 317 316 319 307 308 314 318 320 322 324 328 329 329 329 331 329 332 333 334 332 334 334 335 336 336 338 341 343 344 347 350 353 354 360 356 345 342 340 340 341 342 345 347 351 353 354 356 356 357 360 360 360 361 360 360 360
298 298 297 298 304 310 320 316 309 316 317 319 321 320 317 320 325 328 328 329 330 330 329 329 329 331 330 331 332 333 336 339 340 340 340 342 344 349 352 354 355 356 353 352 350 351 353 343 343 345 348 350 353 355 356 359 360 360 360 361 361 360 360
304 302 305 313 316 317 318 319 319 320 322 323 323 323 321 322 324 330 329 331 333 331 330 329 329 329 330 330 333 332 334 337 338 338 339 341 344 348 350 351 354 352 349 347 349 351 352 353 345 344 346 347 349 352 356 359 358 359 359 360 360 360 361
313 314 316 320 315 316 317 320 322 321 323 326 328 326 324 325 327 329 330 332 332 331 330 330 329 330 331 330 331 332 333 334 337 340 340 341 345 348 349 349 351 350 349 348 349 350 351 353 350 349 348 348 347 350 356 359 359 360 359 359 359 360 361
304 300 312 316 317 316 316 317 321 324 325 326 329 328 328 328 330 332 334 333 333 332 331 329 327 328 330 329 331 333 333 333 334 336 339 341 345 346 346 349 350 348 347 347 347 347 349 351 351 351 349 351 352 349 351 354 357 360 360 359 358 360 360
305 306 312 316 318 317 317 315 314 317 323 326 328 329 330 331 333 335 334 334 334 335 334 333 332 332 332 331 329 332 334 335 336 336 338 338 341 344 346 348 348 346 346 344 344 344 347 349 349 350 353 351 351 350 350 352 353 353 352 356 359 359 359
309 313 315 316 317 315 315 315 314 316 322 325 325 327 328 329 330 333 335 336 335 334 335 335 334 333 332 334 331 331 331 333 335 336 338 337 338 341 343 345 348 346 345 345 344 344 345 348 349 348 348 351 352 349 351 356 354 352 350 352 357 358 358
304 305 308 314 308 307 310 312 313 314 321 326 325 326 326 325 326 329 333 333 336 336 335 337 336 333 333 332 330 331 331 332 334 335 339 338 339 341 345 345 346 345 346 344 343 343 344 346 347 348 347 348 352 351 351 357 355 353 354 357 357 356 355
301 310 313 315 314 313 314 314 313 314 317 323 324 324 323 323 322 326 332 332 332 335 336 338 338 336 334 334 334 332 333 332 332 335 338 339 340 342 346 345 343 343 342 344 342 342 344 345 345 346 346 348 349 351 356 362 362 359 358 355 354 354 352
311 313 311 312 310 308 312 313 313 313 315 317 323 325 325 323 322 322 324 331 333 332 335 337 340 341 339 336 335 334 335 335 334 336 337 339 340 344 346 345 343 342 341 341 340 341 341 343 344 343 344 346 348 350 350 353 357 358 356 354 352 350 351
308 312 314 314 312 313 314 314 314 314 319 319 317 317 320 322 325 324 321 322 332 335 334 336 337 341 340 341 339 337 338 338 339 337 343 347 347 346 345 345 342 342 340 340 340 340 340 341 343 342 342 343 346 350 348 348 349 348 347 349 350 347 344
Wind_Speed
7 8 5 4 6 2 2 0 1 7 5 5 0 3 2 3 6 2 1 3 1 3 2 2 4 1 0 1 6 9 10 12 13 13 13 14 14 13 12 12 12 15 13 10 9 8 8 7 7 7 11 14 14 13 12 12 12 10 11 11 10 8 7
5 9 10 6 6 6 4 1 8 3 1 3 3 3 2 2 3 2 0 5 2 0 2 2 2 2 1 3 6 9 10 12 14 13 13 14 14 14 14 12 11 14 13 11 9 8 8 7 7 7 11 10 14 15 14 14 12 12 10 11 10 9 8
5 0 4 1 4 5 7 6 3 2 1 2 3 2 2 0 0 1 2 2 1 5 4 0 4 5 4 4 5 7 9 11 12 12 13 12 12 11 13 13 10 11 12 11 10 9 8 7 5 7 11 12 10 12 15 15 16 15 14 11 10 9 9
4 4 4 2 5 5 2 2 1 2 3 4 1 5 3 4 1 1 3 3 3 5 5 7 8 9 6 6 7 10 12 13 11 11 12 12 11 11 12 13 11 11 11 12 10 9 9 8 7 6 10 11 13 12 13 12 12 11 10 10 10 10 9
3 4 1 5 7 4 3 1 3 1 2 3 3 0 3 4 3 4 3 1 3 6 5 7 11 9 9 12 11 8 9 10 10 11 12 12 10 8 10 9 11 11 12 11 9 8 7 6 5 6 8 13 14 11 12 12 13 11 11 10 10 9 8
2 5 4 3 1 6 5 7 7 8 4 2 1 7 3 1 4 3 4 2 4 7 2 8 8 7 7 10 11 9 8 9 9 9 10 11 10 10 9 8 9 10 10 10 9 7 2 6 6 6 9 12 13 12 12 12 12 11 12 10 10 8 8
3 6 12 7 5 6 8 8 7 5 3 5 2 3 4 1 1 5 4 6 7 7 4 6 5 6 7 7 8 8 8 9 10 10 10 9 11 13 13 11 10 10 9 8 9 9 11 9 7 6 9 12 13 12 12 11 12 11 11 12 10 9 8
5 7 7 6 3 2 1 3 3 2 3 5 6 7 3 0 2 3 1 1 4 7 3 3 4 4 3 6 9 9 8 8 9 11 10 10 9 9 12 15 10 8 8 8 7 10 13 10 7 6 9 12 13 13 13 12 13 13 10 8 9 9 9
7 9 10 8 8 4 1 3 4 7 6 6 4 2 3 1 1 7 5 3 3 3 0 1 3 4 5 5 4 8 9 7 9 10 9 9 10 11 11 10 11 10 7 8 9 9 9 8 7 6 9 11 14 13 12 13 12 13 11 9 9 9 9
2 3 3 4 5 6 5 3 2 4 3 5 1 2 1 2 1 4 4 1 4 3 2 3 3 4 3 3 5 4 7 11 10 9 9 10 10 11 11 11 11 11 10 9 8 6 4 5 6 6 9 11 12 13 14 12 12 11 10 9 10 9 9
5 8 7 6 1 3 3 8 8 7 7 2 2 4 3 3 4 4 4 9 4 1 2 3 3 5 6 5 4 6 5 5 6 8 9 10 10 11 12 11 10 9 7 9 9 3 2 3 4 6 8 11 12 12 12 11 12 12 10 10 10 10 9
5 6 7 10 5 6 8 6 9 9 5 3 3 4 5 6 8 1 2 5 9 6 3 4 4 4 4 4 5 4 4 7 9 10 9 9 8 9 9 9 10 11 10 8 6 3 4 9 2 2 5 10 12 12 12 11 11 10 9 10 10 10 9
5 7 8 9 7 6 6 7 8 7 10 4 4 5 7 8 7 6 2 5 7 5 5 7 8 8 8 9 6 4 5 6 6 8 10 11 10 9 10 8 6 6 7 7 6 3 6 6 3 0 3 6 7 10 12 11 10 12 11 11 11 10 8
6 8 8 8 8 7 8 9 10 9 8 5 3 5 7 10 11 10 10 6 3 1 3 8 6 3 5 4 5 6 8 8 8 8 9 11 10 11 11 10 8 4 3 3 2 1 2 3 4 2 4 5 8 10 12 12 12 11 10 11 11 10 8
4 6 6 7 8 6 6 8 9 9 8 6 5 7 11 13 9 8 12 10 5 2 2 3 4 5 6 6 5 5 7 8 8 8 8 9 10 9 10 10 10 9 2 3 3 4 5 5 5 3 2 6 6 9 11 12 12 11 11 11 11 10 9
6 5 5 8 8 8 5 6 7 12 9 6 4 9 1 9 7 10 11 7 2 1 3 5 5 5 6 6 5 5 6 8 8 8 8 9 9 9 11 9 8 7 7 3 4 8 8 7 5 4 3 3 6 8 10 11 11 10 10 11 11 10 8
2 7 4 6 5 5 8 11 13 10 7 10 9 9 9 9 11 11 8 5 3 1 3 5 2 4 3 3 3 4 3 5 8 8 9 8 7 9 9 9 10 11 10 10 8 12 8 7 6 5 4 5 7 8 9 11 10 10 11 11 10 9 8
3 6 5 3 4 5 3 7 10 9 10 14 14 10 12 9 8 4 3 3 2 4 4 4 5 5 5 7 6 5 10 10 7 6 8 7 7 7 8 10 11 11 6 8 12 13 10 8 7 6 4 6 8 10 10 10 12 12 12 10 10 10 9
2 3 6 7 2 1 5 2 8 11 10 17 14 12 9 8 10 11 10 6 5 2 3 4 1 1 3 3 5 3 3 6 9 10 7 7 8 9 9 9 9 10 10 8 9 9 9 9 8 6 5 5 5 8 9 10 11 11 11 11 10 9 10
1 3 2 2 1 3 5 5 6 4 1 5 17 14 13 8 4 10 7 4 5 6 7 5 5 8 10 10 10 7 2 1 8 8 7 9 9 11 11 12 11 12 14 16 17 16 12 7 8 5 5 5 6 9 9 12 11 11 11 11 11 10 10
1 2 1 4 4 4 9 6 10 6 2 4 12 7 5 7 4 7 5 5 4 5 4 5 6 7 11 10 7 8 4 0 3 4 9 11 11 10 9 11 14 14 13 10 11 8 7 9 7 5 4 5 7 8 9 10 12 11 11 11 11 11 11
1 1 3 5 5 2 6 3 10 5 4 5 4 14 3 4 8 1 7 5 4 5 5 6 3 6 10 7 5 6 7 3 8 4 3 4 6 9 10 7 5 4 7 11 13 12 13 9 5 4 5 6 7 8 10 9 10 10 11 11 11 11 11
2 1 0 1 1 2 3 9 8 11 9 4 1 11 5 6 4 6 4 6 5 5 7 6 4 6 4 1 2 5 6 5 6 3 2 2 7 10 10 14 14 12 10 11 10 8 7 10 7 6 6 8 8 9 9 10 11 11 11 11 10 10 10
3 2 1 3 1 0 5 8 7 9 9 1 6 6 3 6 7 3 3 7 7 5 5 7 9 7 4 0 1 3 5 4 2 4 4 7 9 2 7 7 6 8 10 8 7 8 10 11 6 6 8 8 8 9 10 10 11 12 12 11 10 10 10
4 7 3 1 1 3 4 6 9 10 3 7 9 4 2 3 4 3 4 5 4 4 5 4 5 0 1 2 1 2 4 0 4 4 3 4 5 9 8 2 5 4 4 8 9 7 8 7 5 5 6 8 8 8 9 10 13 12 11 9 9 9 9
1 1 1 1 2 3 3 6 6 6 7 5 2 3 3 2 1 2 4 6 3 5 5 4 3 4 2 1 1 1 0 2 1 2 3 5 6 6 6 8 5 3 6 8 10 14 14 11 10 9 9 10 10 9 10 12 11 7 6 7 8 9 10
2 4 4 3 1 3 7 6 6 10 8 2 4 2 6 3 4 5 6 5 3 4 4 3 3 4 2 0 0 0 1 2 2 3 3 5 6 6 7 9 8 3 4 5 8 12 11 10 9 10 12 12 12 11 13 12 7 8 8 9 10 10 10
2 1 2 1 2 4 6 4 6 2 3 2 1 3 5 4 3 3 4 4 2 3 5 3 2 2 2 2 2 2 3 2 3 3 2 2 4 5 5 5 5 6 5 2 1 2 3 5 8 8 11 12 12 13 15 9 9 8 9 10 11 11 11
2 1 1 1 2 2 4 6 5 4 4 5 5 6 4 4 3 1 4 3 5 5 4 4 2 2 2 1 0 1 2 3 4 4 4 3 3 4 6 4 4 6 5 2 2 2 2 4 8 10 9 10 11 13 9 10 12 12 11 11 12 11 11
2 5 3 0 7 7 7 7 5 5 7 8 10 9 7 6 4 3 4 4 4 4 3 5 2 0 1 1 2 1 1 1 2 3 4 3 2 0 3 4 4 5 6 6 5 5 4 4 4 9 10 10 13 11 6 11 13 12 11 11 10 10 9
4 1 5 11 5 5 8 8 8 8 8 7 8 9 8 6 6 6 5 5 4 4 4 4 2 0 2 2 0 0 1 2 2 3 4 3 1 1 3 4 5 7 6 6 5 3 5 5 4 3 7 9 6 7 7 5 3 5 12 13 11 9 10
6 4 3 3 5 4 4 6 7 6 7 9 8 7 6 7 6 7 5 3 3 2 3 2 2 0 1 0 1 1 2 3 3 4 4 4 5 6 4 4 6 7 7 6 4 3 3 5 4 3 1 3 5 4 5 9 8 1 4 7 11 11 12
4 2 1 1 4 10 9 9 8 5 5 8 8 8 9 9 9 7 6 5 4 2 1 1 0 1 2 0 1 3 3 5 4 3 3 2 2 7 8 2 5 8 7 7 5 4 5 5 5 4 2 1 4 7 3 3 7 8 10 10 7 8 9
1 2 2 2 0 1 7 7 6 5 3 6 7 7 8 8 7 5 5 6 6 4 2 0 0 2 4 3 1 2 4 5 6 8 5 3 4 7 8 1 7 10 9 7 5 5 6 6 5 5 3 3 4 12 13 10 13 14 13 11 9 9 9
3 5 3 3 8 5 2 1 5 8 4 5 9 6 5 5 5 4 5 5 6 6 5 3 3 1 2 3 1 2 4 6 6 7 9 8 6 6 3 5 10 10 8 7 5 4 5 6 7 5 3 3 2 2 5 7 11 11 10 9 9 9 10
2 0 1 1 2 4 2 3 5 5 5 6 6 4 4 4 4 5 5 3 2 3 4 5 3 1 2 3 2 4 4 5 5 7 6 8 9 9 9 9 8 7 5 4 4 3 4 5 6 5 3 3 2 1 3 6 7 9 11 10 9 9 8
3 1 0 2 3 1 1 4 4 5 4 5 6 6 5 4 3 4 5 5 1 0 3 4 4 3 4 3 3 4 4 3 3 4 5 5 5 6 6 4 2 1 0 0 0 1 3 4 5 5 4 4 2 0 2 4 6 6 3 6 9 8 8
Wind_Direction
192 213 165 209 125 105 262 65 240 210 190 131 7 336 284 79 54 285 218 332 300 305 339 298 311 277 265 139 151 157 163 163 164 174 179 182 184 185 184 186 187 185 185 189 186 180 179 167 167 139 174 169 170 171 174 173 175 175 174 174 177 179 178
270 208 186 189 181 149 92 131 234 263 90 124 137 219 322 70 130 244 203 216 242 5 272 288 312 234 246 147 164 166 162 160 170 178 180 181 184 186 183 182 186 183 182 182 182 181 182 177 172 141 168 184 173 172 174 172 174 176 179 174 178 181 179
268 174 115 262 237 169 155 197 190 94 297 338 310 85 352 28 282 227 287 229 269 183 240 273 249 232 189 169 153 144 161 172 179 177 180 181 180 176 178 177 179 183 180 183 182 186 185 175 175 147 167 179 186 179 176 173 177 180 176 176 178 181 183
330 9 82 219 237 299 301 351 284 190 127 201 309 199 182 114 195 96 288 107 232 212 220 199 220 225 185 165 167 180 178 179 175 176 175 173 172 176 176 178 176 177 181 185 185 190 189 187 182 154 167 176 185 187 179 179 177 172 170 171 173 180 186
44 346 168 209 189 164 252 236 280 340 223 209 157 272 162 178 174 183 156 193 273 259 217 193 217 218 192 175 183 180 180 177 175 173 172 172 166 156 164 186 178 178 182 187 190 195 194 192 183 157 165 179 185 183 181 173 171 171 175 175 173 178 180
36 253 249 227 160 197 171 179 216 202 221 246 233 275 325 129 106 203 115 214 266 257 203 210 215 218 197 186 169 168 170 170 167 172 173 166 159 163 175 189 184 185 188 191 194 195 216 194 191 164 170 179 181 180 182 176 171 172 175 175 177 177 178
259 265 278 277 235 172 191 175 234 190 148 109 101 237 276 7 253 111 150 132 244 242 229 214 218 206 198 161 157 158 164 164 166 171 170 169 156 161 171 197 191 191 195 198 196 156 226 223 200 170 173 176 180 180 179 177 173 179 177 177 177 173 178
295 303 294 282 347 320 59 244 226 146 190 179 189 199 198 131 317 56 20 74 249 279 299 282 252 217 151 146 163 156 156 150 158 162 169 167 154 151 176 186 181 179 199 205 194 193 210 211 203 173 174 175 178 178 181 177 180 178 176 170 171 175 179
336 340 348 358 333 57 73 312 250 191 190 216 214 77 43 88 241 157 114 185 264 275 286 95 118 111 133 150 166 153 146 156 156 159 161 164 158 156 175 175 168 167 192 217 210 203 203 201 197 156 173 180 176 178 179 180 182 179 179 172 168 174 181
18 323 317 287 302 290 292 272 281 306 205 230 319 276 314 92 293 117 134 179 254 289 21 92 124 139 122 149 169 167 156 159 154 156 161 161 160 168 169 166 167 173 180 211 225 206 184 190 186 152 167 175 181 179 180 178 177 178 180 178 177 172 178
183 213 225 244 158 327 318 296 298 292 273 218 126 102 82 185 208 160 225 150 166 182 132 117 167 164 155 155 169 173 150 151 144 154 160 163 166 168 171 170 171 167 178 203 220 174 318 243 183 144 156 176 182 182 180 180 176 176 176 179 182 181 183
215 223 244 262 262 268 272 275 289 303 301 264 157 160 222 180 97 196 4 166 128 202 159 170 182 178 158 169 170 160 145 155 157 165 163 155 159 166 167 169 170 178 183 190 212 136 183 273 252 111 146 172 183 180 180 178 176 174 176 179 182 186 186
280 276 270 270 275 252 254 265 273 293 291 284 275 246 196 139 137 187 200 190 145 204 186 184 179 173 173 186 179 162 141 122 128 145 154 163 164 162 164 165 154 157 158 168 173 178 165 238 257 239 116 161 183 186 178 175 174 178 178 178 183 185 180
292 293 295 306 313 301 299 289 287 277 269 279 283 292 122 109 127 142 128 137 125 188 204 198 190 166 137 109 106 114 129 142 146 149 157 163 164 164 160 156 144 112 85 81 74 318 285 259 256 217 125 151 177 188 182 176 176 184 173 181 182 180 178
295 298 316 331 323 306 298 294 275 280 303 349 9 71 100 89 55 84 106 108 102 280 204 159 89 91 90 92 116 136 134 140 148 152 154 159 164 169 171 162 158 154 150 27 354 318 298 275 256 238 158 148 175 194 186 176 181 179 177 179 184 179 176
313 307 346 319 331 332 324 345 340 324 327 358 37 83 57 94 104 90 83 77 72 307 38 79 110 118 133 153 146 137 146 153 155 153 160 160 163 171 177 173 154 146 154 181 243 259 266 272 263 251 175 165 153 199 185 178 179 174 176 179 183 181 161
274 279 336 323 351 19 19 351 331 336 59 81 52 66 64 88 113 100 107 165 220 205 111 109 107 143 140 145 167 114 134 162 162 160 165 174 171 176 182 170 168 170 174 184 212 246 253 255 264 259 201 172 177 192 193 180 169 173 178 181 181 170 154
255 289 326 360 51 52 3 300 354 1 81 88 80 58 69 39 56 104 111 110 12 34 51 136 172 154 180 193 208 188 162 159 167 171 169 178 178 178 183 180 179 185 190 197 200 217 228 245 248 253 216 196 186 182 190 177 172 177 177 180 176 167 156
277 314 16 36 39 155 249 340 46 31 38 82 83 75 59 81 89 85 73 55 64 94 109 83 64 232 234 169 166 163 164 157 162 169 176 178 178 183 183 189 185 176 173 202 236 245 239 234 244 243 228 213 188 180 181 179 178 175 178 173 174 166 160
33 36 41 35 239 231 331 344 67 60 44 32 71 35 19 6 64 97 83 70 52 32 29 19 38 60 69 65 37 19 24 165 167 162 185 188 187 188 191 184 192 184 187 191 200 222 232 226 240 226 218 204 183 188 183 178 179 179 176 175 173 167 162
241 207 126 231 288 356 350 10 345 0 327 285 110 95 357 335 347 79 99 72 50 47 20 20 38 70 80 65 20 10 17 320 253 217 187 189 195 193 199 195 194 188 193 204 215 209 223 226 223 219 210 197 191 183 185 187 177 179 177 176 174 171 169
108 99 356 356 23 357 284 263 277 305 279 254 122 101 23 340 335 336 96 82 61 46 19 20 15 78 73 44 0 335 348 37 134 165 201 220 231 204 189 201 218 223 212 204 205 196 212 222 208 188 189 189 193 189 187 183 182 180 179 181 178 174 173
55 35 166 197 167 235 230 301 308 312 319 225 205 72 24 294 340 315 101 93 73 67 56 13 31 70 68 101 260 294 331 6 65 81 54 146 212 223 201 189 196 203 207 208 212 213 224 236 220 186 184 185 187 194 189 186 184 183 186 183 177 176 175
181 138 144 267 197 208 305 303 305 310 309 282 77 55 295 285 322 305 72 81 81 77 85 84 69 92 98 258 232 293 325 321 16 46 29 52 66 140 213 251 244 207 206 202 204 214 222 231 213 183 172 175 191 193 194 188 188 190 189 184 179 175 172
197 154 221 58 322 296 277 300 306 321 317 59 73 143 232 272 316 336 70 78 88 85 59 59 91 289 193 185 143 303 277 275 22 34 44 39 60 74 78 147 204 222 204 207 215 223 234 229 213 195 174 175 191 199 194 193 197 195 186 174 168 170 169
60 134 109 200 221 240 268 294 330 335 64 43 74 233 212 235 339 10 66 93 90 93 90 100 128 177 186 107 170 243 317 56 40 53 61 59 62 75 87 73 78 165 225 213 186 204 212 197 197 189 183 185 191 193 198 205 201 173 156 160 162 165 171
16 32 60 34 31 293 321 318 15 13 88 192 242 305 10 43 41 36 25 42 3 83 75 64 109 110 69 31 162 318 359 11 24 41 42 77 75 60 64 71 80 122 241 234 215 213 214 202 195 190 187 189 189 190 203 205 174 163 162 162 168 174 176
120 74 71 117 204 245 312 47 101 348 83 185 130 76 48 8 70 74 63 35 44 68 103 106 63 69 99 33 349 339 345 340 344 2 1 14 54 57 62 77 88 96 93 72 5 327 289 217 200 196 195 194 192 193 202 178 170 167 171 174 174 178 181
93 98 142 298 280 312 5 73 111 118 91 78 73 81 85 81 12 7 78 45 39 59 79 66 53 42 49 119 346 341 317 353 355 345 344 339 13 76 78 60 76 87 94 62 1 347 332 248 203 197 193 196 198 206 200 167 175 179 181 180 178 183 178
81 62 31 138 41 31 33 36 47 58 58 58 62 59 58 30 30 33 75 60 60 48 53 94 19 21 254 124 83 46 339 350 290 282 283 287 283 333 103 96 88 88 75 62 39 3 331 335 251 200 199 200 202 210 180 178 186 184 173 172 179 179 172
69 14 341 47 5 19 34 36 39 57 59 63 63 63 58 53 44 42 39 67 73 85 73 88 116 325 316 329 24 240 274 274 256 269 276 261 223 219 156 144 115 84 78 65 41 5 334 333 335 268 211 197 172 108 100 34 331 198 177 178 175 166 167
101 185 220 185 135 93 55 54 39 26 44 53 57 66 68 59 46 46 37 35 44 56 67 135 143 250 286 287 305 295 269 262 279 290 286 308 343 320 274 132 111 100 86 78 58 5 337 332 347 351 286 225 193 156 124 142 148 240 269 202 172 172 168
306 345 324 277 47 36 19 19 36 41 81 80 58 55 55 52 46 27 27 38 37 52 129 143 143 332 307 152 268 297 295 293 277 255 248 241 277 284 273 138 105 96 86 63 39 9 346 336 3 12 11 24 98 81 87 141 160 176 197 216 178 160 156
3 212 214 293 48 338 347 3 16 36 38 84 80 68 59 53 48 30 29 12 15 40 50 7 327 1 314 317 339 315 294 296 306 313 313 278 241 231 249 210 89 76 67 64 36 6 339 338 353 6 11 35 139 166 184 186 178 184 188 180 158 158 156
215 241 259 189 138 153 172 223 30 41 33 84 89 86 77 61 63 64 54 27 13 9 2 27 53 303 255 277 276 295 299 296 291 298 313 313 302 296 292 46 53 61 58 47 35 8 342 341 344 353 1 345 44 106 153 168 164 167 164 159 161 159 163
125 185 313 349 88 117 94 71 68 65 55 68 68 54 60 61 58 49 46 50 53 3 356 358 27 24 275 265 227 258 271 263 272 293 295 312 323 328 345 20 42 47 37 40 31 349 333 349 344 345 350 345 1 88 132 155 161 163 166 162 163 169 164
179 210 27 73 109 77 44 107 78 66 62 76 65 40 31 20 24 46 31 3 335 88 9 340 343 14 38 338 284 275 278 273 252 256 281 289 296 304 319 349 19 47 59 120 313 4 358 354 349 343 348 341 353 346 94 61 74 96 115 156 157 150 127